Regional Weather Roundup
Issued by NWS

Home | Current Version | Previous Version | Graphics & Text | Print | Product List | Glossary On
Versions: 1 2 3 4 5 6 7 8 9 10 11 12 13 14 15 16 17 18 19 20 21 22 23 24 25 26 27 28 29 30 31 32 33 34 35 36 37 38 39 40 41 42 43 44 45 46 47 48 49 50
000
ASUS43 KDMX 271007
RWRIA

WEATHER ROUNDUP FOR IOWA
NATIONAL WEATHER SERVICE DES MOINES IA
500 AM CDT SUN JUL 27 2014

NOTE: "FAIR" INDICATES FEW OR NO CLOUDS BELOW 12,000 FEET WITH NO
SIGNIFICANT WEATHER AND/OR OBSTRUCTIONS TO VISIBILITY.

* - THESE STATIONS ARE NOT NWS STATIONS...THUS NOT UNDER NWS
QUALITY CONTROL.  THEY ALSO DO NOT REPORT WEATHER SUCH
AS PRECIPITATION OR FOG.

IAZ001>003-012>014-020>022-031>034-043>046-271100-
   NORTHWEST IOWA

CITY           SKY/WX    TMP DP  RH WIND       PRES   REMARKS
CARROLL *      CLEAR     64  59  82 NW8       29.95R
CHEROKEE *     CLEAR     61  57  88 CALM      29.97R
DENISON *      CLEAR     64  63  94 NW6       29.96R
LE MARS *      CLEAR     61  57  88 W6        29.99S
ORANGE CITY *  CLEAR     61  55  82 W7        29.98S
SHELDON *      CLEAR     61  55  82 NW10      29.96R
SIOUX CITY     CLEAR     60  58  92 W3        29.99S
SPENCER        CLEAR     60  56  86 W9        29.94S
STORM LAKE *   CLEAR     59  59 100 W8        29.97S
$$

IAZ055>058-069>071-079>083-090>094-271100-
   SOUTHWEST IOWA

CITY           SKY/WX    TMP DP  RH WIND       PRES   REMARKS
ATLANTIC *     CLEAR     70  66  88 NW9       29.96R
AUDUBON *      CLEAR     70  64  83 NW5       29.98R
CLARINDA *     FOG       64  64 100 CALM      29.97R VSB 1/4
COUNCIL BLFS * CLEAR     70  70 100 N8        29.98R
CRESTON *      CLEAR     68  66  94 W6        29.95R
HARLAN  *      CLEAR     64  64 100 CALM      30.01R
LAMONI         CLEAR     70  68  93 NW6       29.92S FOG
RED OAK *      CLEAR     68  66  94 NW5       29.96S
SHENANDOAH *   PTCLDY    68  66  94 CALM      29.97R
$$

IAZ047>049-059>061-072>074-084-271100-
   CENTRAL IOWA

CITY           SKY/WX    TMP DP  RH WIND       PRES   REMARKS
AMES           CLEAR     68  63  84 NW8       29.90R
ANKENY *       CLEAR     70  68  94 NW8       29.90R
CHARITON *     CLEAR     70  70 100 NW7       29.91R FOG
DES MOINES     CLEAR     69  66  90 NW8       29.90R
GRINNELL*      FOG       66  64  94 W5        29.88S VSB 3/4
KNOXVILLE *    MOCLDY    70  68  94 W8        29.88R FOG
MARSHALLTOWN   CLEAR     66  64  93 NW7       29.87S
PELLA *          N/A     70  68  94 W5        29.89S FOG
PERRY *          N/A     64  63  94 W7        29.92S
$$

IAZ004>006-015-016-023>025-035-036-271100-
   NORTH CENTRAL IOWA

CITY           SKY/WX    TMP DP  RH WIND       PRES   REMARKS
ALGONA *       CLEAR     61  59  94 W7        29.91S
CLARION *      CLEAR     63  61  94 NW8       29.90S
FORT DODGE *   CLEAR     64  59  82 CALM      29.93S
MASON CITY     CLEAR     63  58  83 W8        29.89F
FOREST CITY *  CLEAR     63  55  77 E5        29.88F
IOWA FALLS *     N/A     66  63  88 NW8       29.90R
$$

IAZ007>011-017>019-026>030-037>042-050>054-066-271100-
   NORTHEAST IOWA

CITY           SKY/WX    TMP DP  RH WIND       PRES   REMARKS
CEDAR RAPIDS   CLEAR     67  66  97 W6        29.83F FOG
CHARLES CITY * CLEAR     64  63  94 W6        29.86S
CLINTON *        N/A     64  64 100 W3        29.83F VSB<1/4
DECORAH *      CLEAR     66  64  94 VRB5      29.82S
DUBUQUE        CLEAR     68  66  93 W9        29.82F
MONTICELLO *   FOG       64  64 100 CALM      29.82S VSB 1/2
OELWEIN *      MOCLDY    66  64  94 W8        29.85S
WATERLOO       CLEAR     67  64  90 W8        29.84S
$$

IAZ064-065-067-068-078-271100-
   EAST CENTRAL IOWA

CITY           SKY/WX    TMP DP  RH WIND       PRES   REMARKS
DAVENPORT      FOG       66  65  96 W5        29.83F VSB 1/4
IOWA CITY      CLEAR     68  67  96 W3        29.85S FOG
MT. PLEASANT * MOCLDY    73  72  94 NW5       29.85S FOG
MUSCATINE *    CLEAR     70  68  94 W3        29.83F FOG
QUAD CITIES    FOG       68  66  93 W3        29.82S VSB 1/2
$$

IAZ062-063-075>077-085>089-095>099-271100-
   SOUTHEAST IOWA

CITY           SKY/WX    TMP DP  RH WIND       PRES   REMARKS
BURLINGTON     CLOUDY    73  73 100 N7        29.83S FOG
FAIRFIELD *    CLEAR     70  68  94 NW6       29.87S FOG
FORT MADISON * CLOUDY    75  75 100 NW6       29.84F FOG
KEOKUK *       FOG       72  72 100 NW3       29.83S VSB 1/4
OSKALOOSA *      N/A     68  68 100 W3        29.87S FOG
CENTERVILLE *  CLEAR     72  72 100 CALM      29.91R
OTTUMWA        CLEAR     70  69  97 W5        29.87S FOG
WASHINGTON *   CLEAR     68  68 100 W6        29.85F FOG
$$

ABBREVIATIONS USED IN REMARKS
   TC - TEMPERATURES IN CELSIUS
  WCI - WIND CHILL INDEX
   HX - HEAT INDEX
  VSB - VISIBILITY
$$



USA.gov is the U.S. government's official web portal to all federal, state and local government web resources and services.